Simultaneous Nadir Overpasses (SNOs) Predictions

Prediction of SNOs between METOP-B and TERRA Satellite Orbit:

Table of predicted SNOs for the next 14.0 days since TLE Epoch: 3/2/2019
Index Date (METOP-B) Time (METOP-B) Lat,Lon (METOP-B) SZA (METOP-B ) Date (TERRA) Time (TERRA) Lat,Lon (TERRA) SZA (TERRA ) Distance(km) Time Diff (sec)
1 03/04/2019 14:17:11 81.29, 12.39 90.05 03/04/2019 14:18:20 81.29, 12.51 90.10 2.26 69
2 03/04/2019 15:07:51 -81.29,-179.96 89.93 03/04/2019 15:07:47 -81.29,-179.88 89.92 1.37 4
3 03/07/2019 09:51:35 81.29, 78.82 88.99 03/07/2019 09:52:44 81.28, 78.66 88.99 2.67 69
4 03/07/2019 10:42:15 -81.29,-113.53 91.00 03/07/2019 10:42:11 -81.28,-113.69 91.02 2.91 4
5 03/10/2019 05:25:59 81.28, 144.84 87.87 03/10/2019 05:27:09 81.28, 145.00 87.91 2.60 70
6 03/10/2019 06:16:38 -81.29, -47.11 92.07 03/10/2019 06:16:35 -81.30, -46.94 92.05 2.97 3
7 03/13/2019 01:00:45 81.05,-157.17 85.79 03/13/2019 01:01:58 80.76,-156.01 85.69 38.18 73
8 03/13/2019 01:51:02 -81.29, 19.30 93.15 03/13/2019 01:51:04 -81.29, 19.23 93.16 1.32 2
9 03/13/2019 02:41:42 81.29,-173.06 86.88 03/13/2019 02:40:30 81.29,-173.05 86.85 0.22 72
10 03/15/2019 21:25:26 -81.29, 85.70 94.23 03/15/2019 21:25:35 -81.29, 85.57 94.24 2.21 9




NCC Satellite Simultaneous Nadir Overpasses (SNOs) Prediction Service
